owner,sensor,date,latitude,longitude,vertical_datum,sea_water_temperature,qcFlag 
Scripps,ioos:station:wmo:42099:1,2017-02-01T00:30:00Z,27.3400,-84.2750,0.0,24.0,2 
Scripps,ioos:station:wmo:42099:1,2017-02-01T01:30:00Z,27.3400,-84.2750,0.0,24.0,2 
Scripps,ioos:station:wmo:42099:1,2017-02-01T02:30:00Z,27.3400,-84.2750,0.0,23.95,2 
Scripps,ioos:station:wmo:42099:1,2017-02-01T05:00:00Z,27.3400,-84.2750,0.0,23.95,2 
Scripps,ioos:station:wmo:42099:1,2017-02-01T08:30:00Z,27.3400,-84.2750,0.0,23.9,2 
Scripps,ioos:station:wmo:42099:1,2017-02-01T09:30:00Z,27.3400,-84.2750,0.0,23.85,2 
Scripps,ioos:station:wmo:42099:1,2017-02-01T12:30:00Z,27.3400,-84.2750,0.0,23.9,2 
Scripps,ioos:station:wmo:42099:1,2017-02-01T13:30:00Z,27.3400,-84.2750,0.0,23.9,2 
Scripps,ioos:station:wmo:42099:1,2017-02-01T15:30:00Z,27.3400,-84.2750,0.0,23.95,2 
Scripps,ioos:station:wmo:42099:1,2017-02-01T16:30:00Z,27.3400,-84.2750,0.0,24.0,2 
Scripps,ioos:station:wmo:42099:1,2017-02-01T17:30:00Z,27.3400,-84.2750,0.0,24.05,2 
Scripps,ioos:station:wmo:42099:1,2017-02-01T19:30:00Z,27.3400,-84.2750,0.0,24.1,2 
Scripps,ioos:station:wmo:42099:1,2017-02-01T21:30:00Z,27.3400,-84.2750,0.0,24.05,2 
Scripps,ioos:station:wmo:42099:1,2017-02-01T22:30:00Z,27.3400,-84.2750,0.0,24.0,2 
Scripps,ioos:station:wmo:42099:1,2017-02-01T23:30:00Z,27.3400,-84.2750,0.0,23.95,2 
Scripps,ioos:station:wmo:42099:1,2017-02-02T00:00:00Z,27.3400,-84.2750,0.0,23.95,2 
Scripps,ioos:station:wmo:42099:1,2017-02-02T01:30:00Z,27.3400,-84.2750,0.0,23.95,2 
Scripps,ioos:station:wmo:42099:1,2017-02-02T03:30:00Z,27.3400,-84.2750,0.0,23.9,2 
Scripps,ioos:station:wmo:42099:1,2017-02-02T04:30:00Z,27.3400,-84.2750,0.0,23.9,2 
Scripps,ioos:station:wmo:42099:1,2017-02-02T05:00:00Z,27.3400,-84.2750,0.0,23.9,2 
Scripps,ioos:station:wmo:42099:1,2017-02-02T06:30:00Z,27.3400,-84.2750,0.0,23.8,2 
Scripps,ioos:station:wmo:42099:1,2017-02-02T07:00:00Z,27.3400,-84.2750,0.0,23.85,2 
Scripps,ioos:station:wmo:42099:1,2017-02-02T08:30:00Z,27.3400,-84.2750,0.0,23.8,2 
Scripps,ioos:station:wmo:42099:1,2017-02-02T09:30:00Z,27.3400,-84.2750,0.0,23.75,2 
Scripps,ioos:station:wmo:42099:1,2017-02-02T10:30:00Z,27.3400,-84.2750,0.0,23.8,2 
Scripps,ioos:station:wmo:42099:1,2017-02-02T11:30:00Z,27.3400,-84.2750,0.0,23.8,2 
Scripps,ioos:station:wmo:42099:1,2017-02-02T12:30:00Z,27.3400,-84.2750,0.0,23.75,2 
Scripps,ioos:station:wmo:42099:1,2017-02-02T13:30:00Z,27.3400,-84.2750,0.0,23.8,2 
Scripps,ioos:station:wmo:42099:1,2017-02-02T14:30:00Z,27.3400,-84.2750,0.0,23.8,2 
Scripps,ioos:station:wmo:42099:1,2017-02-02T15:30:00Z,27.3400,-84.2750,0.0,23.85,2 
Scripps,ioos:station:wmo:42099:1,2017-02-02T16:30:00Z,27.3400,-84.2750,0.0,23.85,2 
Scripps,ioos:station:wmo:42099:1,2017-02-02T17:30:00Z,27.3400,-84.2750,0.0,23.85,2 
Scripps,ioos:station:wmo:42099:1,2017-02-02T18:30:00Z,27.3400,-84.2750,0.0,23.75,2 
Scripps,ioos:station:wmo:42099:1,2017-02-02T19:30:00Z,27.3400,-84.2750,0.0,23.5,2 
Scripps,ioos:station:wmo:42099:1,2017-02-02T20:30:00Z,27.3400,-84.2750,0.0,23.5,2 
Scripps,ioos:station:wmo:42099:1,2017-02-02T21:30:00Z,27.3400,-84.2750,0.0,23.45,2 
Scripps,ioos:station:wmo:42099:1,2017-02-02T22:30:00Z,27.3400,-84.2750,0.0,23.45,2 
Scripps,ioos:station:wmo:42099:1,2017-02-02T23:00:00Z,27.3400,-84.2750,0.0,23.4,2 
Scripps,ioos:station:wmo:42099:1,2017-02-03T00:30:00Z,27.3400,-84.2750,0.0,23.3,2 
Scripps,ioos:station:wmo:42099:1,2017-02-03T01:00:00Z,27.3400,-84.2750,0.0,23.3,2 
Scripps,ioos:station:wmo:42099:1,2017-02-03T02:30:00Z,27.3400,-84.2750,0.0,23.25,2 
Scripps,ioos:station:wmo:42099:1,2017-02-03T05:30:00Z,27.3400,-84.2750,0.0,23.2,2 
Scripps,ioos:station:wmo:42099:1,2017-02-03T09:30:00Z,27.3400,-84.2750,0.0,23.05,2 
Scripps,ioos:station:wmo:42099:1,2017-02-03T10:30:00Z,27.3400,-84.2750,0.0,22.95,2 
Scripps,ioos:station:wmo:42099:1,2017-02-03T12:30:00Z,27.3400,-84.2750,0.0,22.8,2 
Scripps,ioos:station:wmo:42099:1,2017-02-03T14:00:00Z,27.3400,-84.2750,0.0,22.8,2 
Scripps,ioos:station:wmo:42099:1,2017-02-03T15:30:00Z,27.3400,-84.2750,0.0,22.9,2 
Scripps,ioos:station:wmo:42099:1,2017-02-03T18:30:00Z,27.3400,-84.2750,0.0,23.1,2 
Scripps,ioos:station:wmo:42099:1,2017-02-03T19:30:00Z,27.3400,-84.2750,0.0,23.15,2 
Scripps,ioos:station:wmo:42099:1,2017-02-03T21:30:00Z,27.3400,-84.2750,0.0,23.15,2 
Scripps,ioos:station:wmo:42099:1,2017-02-03T22:30:00Z,27.3400,-84.2750,0.0,23.1,2 
Scripps,ioos:station:wmo:42099:1,2017-02-03T23:30:00Z,27.3400,-84.2750,0.0,23.05,2 
Scripps,ioos:station:wmo:42099:1,2017-02-04T00:30:00Z,27.3400,-84.2750,0.0,23.0,2 
Scripps,ioos:station:wmo:42099:1,2017-02-04T01:30:00Z,27.3400,-84.2750,0.0,22.95,2 
Scripps,ioos:station:wmo:42099:1,2017-02-04T02:30:00Z,27.3400,-84.2750,0.0,22.95,2 
Scripps,ioos:station:wmo:42099:1,2017-02-04T03:00:00Z,27.3400,-84.2750,0.0,22.95,2 
Scripps,ioos:station:wmo:42099:1,2017-02-04T04:30:00Z,27.3400,-84.2750,0.0,22.9,2 
Scripps,ioos:station:wmo:42099:1,2017-02-04T06:00:00Z,27.3400,-84.2750,0.0,22.9,2 
Scripps,ioos:station:wmo:42099:1,2017-02-04T09:30:00Z,27.3400,-84.2750,0.0,22.85,2 
Scripps,ioos:station:wmo:42099:1,2017-02-04T10:30:00Z,27.3400,-84.2750,0.0,22.8,2 
Scripps,ioos:station:wmo:42099:1,2017-02-04T11:30:00Z,27.3400,-84.2750,0.0,22.8,2 
Scripps,ioos:station:wmo:42099:1,2017-02-04T12:30:00Z,27.3400,-84.2750,0.0,22.9,2 
Scripps,ioos:station:wmo:42099:1,2017-02-04T13:30:00Z,27.3400,-84.2750,0.0,22.85,2 
Scripps,ioos:station:wmo:42099:1,2017-02-04T14:30:00Z,27.3400,-84.2750,0.0,22.9,2 
Scripps,ioos:station:wmo:42099:1,2017-02-04T15:00:00Z,27.3400,-84.2750,0.0,22.9,2 
Scripps,ioos:station:wmo:42099:1,2017-02-04T16:30:00Z,27.3400,-84.2750,0.0,22.95,2 
Scripps,ioos:station:wmo:42099:1,2017-02-04T17:00:00Z,27.3400,-84.2750,0.0,22.95,2 
Scripps,ioos:station:wmo:42099:1,2017-02-04T18:00:00Z,27.3400,-84.2750,0.0,23.0,2 
Scripps,ioos:station:wmo:42099:1,2017-02-04T19:30:00Z,27.3400,-84.2750,0.0,23.05,2 
Scripps,ioos:station:wmo:42099:1,2017-02-04T20:30:00Z,27.3400,-84.2750,0.0,23.1,2 
Scripps,ioos:station:wmo:42099:1,2017-02-04T21:30:00Z,27.3400,-84.2750,0.0,23.1,2 
Scripps,ioos:station:wmo:42099:1,2017-02-04T22:00:00Z,27.3400,-84.2750,0.0,23.1,2 
Scripps,ioos:station:wmo:42099:1,2017-02-05T00:30:00Z,27.3400,-84.2750,0.0,23.1,2 
Scripps,ioos:station:wmo:42099:1,2017-02-05T01:30:00Z,27.3400,-84.2750,0.0,23.1,2 
Scripps,ioos:station:wmo:42099:1,2017-02-05T02:30:00Z,27.3400,-84.2750,0.0,23.1,2 
Scripps,ioos:station:wmo:42099:1,2017-02-05T03:00:00Z,27.3400,-84.2750,0.0,23.1,2 
Scripps,ioos:station:wmo:42099:1,2017-02-05T09:30:00Z,27.3400,-84.2750,0.0,23.45,2 
Scripps,ioos:station:wmo:42099:1,2017-02-05T12:00:00Z,27.3400,-84.2750,0.0,23.3,2 
Scripps,ioos:station:wmo:42099:1,2017-02-05T13:30:00Z,27.3400,-84.2750,0.0,23.25,2 
Scripps,ioos:station:wmo:42099:1,2017-02-05T15:30:00Z,27.3400,-84.2750,0.0,23.25,2 
Scripps,ioos:station:wmo:42099:1,2017-02-05T16:00:00Z,27.3400,-84.2750,0.0,23.25,2 
Scripps,ioos:station:wmo:42099:1,2017-02-05T17:00:00Z,27.3400,-84.2750,0.0,23.35,2 
Scripps,ioos:station:wmo:42099:1,2017-02-05T18:30:00Z,27.3400,-84.2750,0.0,23.5,2 
Scripps,ioos:station:wmo:42099:1,2017-02-05T19:30:00Z,27.3400,-84.2750,0.0,23.6,2 
Scripps,ioos:station:wmo:42099:1,2017-02-05T20:30:00Z,27.3400,-84.2750,0.0,23.65,2 
Scripps,ioos:station:wmo:42099:1,2017-02-05T21:30:00Z,27.3400,-84.2750,0.0,23.55,2 
Scripps,ioos:station:wmo:42099:1,2017-02-05T22:30:00Z,27.3400,-84.2750,0.0,23.45,2 
Scripps,ioos:station:wmo:42099:1,2017-02-05T23:00:00Z,27.3400,-84.2750,0.0,23.4,2 
Scripps,ioos:station:wmo:42099:1,2017-02-06T03:30:00Z,27.3400,-84.2750,0.0,23.2,2 
Scripps,ioos:station:wmo:42099:1,2017-02-06T04:30:00Z,27.3400,-84.2750,0.0,23.15,2 
Scripps,ioos:station:wmo:42099:1,2017-02-06T05:30:00Z,27.3400,-84.2750,0.0,23.15,2 
Scripps,ioos:station:wmo:42099:1,2017-02-06T06:30:00Z,27.3400,-84.2750,0.0,23.15,2 
Scripps,ioos:station:wmo:42099:1,2017-02-06T07:30:00Z,27.3400,-84.2750,0.0,23.1,2 
Scripps,ioos:station:wmo:42099:1,2017-02-06T14:00:00Z,27.3400,-84.2750,0.0,22.45,2 
Scripps,ioos:station:wmo:42099:1,2017-02-06T15:30:00Z,27.3400,-84.2750,0.0,22.35,2 
Scripps,ioos:station:wmo:42099:1,2017-02-06T16:30:00Z,27.3400,-84.2750,0.0,22.45,2 
Scripps,ioos:station:wmo:42099:1,2017-02-06T18:30:00Z,27.3400,-84.2750,0.0,22.55,2 
Scripps,ioos:station:wmo:42099:1,2017-02-06T21:30:00Z,27.3400,-84.2750,0.0,22.4,2 
Scripps,ioos:station:wmo:42099:1,2017-02-06T22:30:00Z,27.3400,-84.2750,0.0,22.25,2 
Scripps,ioos:station:wmo:42099:1,2017-02-07T00:30:00Z,27.3400,-84.2750,0.0,22.2,2 
Scripps,ioos:station:wmo:42099:1,2017-02-07T01:00:00Z,27.3400,-84.2750,0.0,22.2,2 
Scripps,ioos:station:wmo:42099:1,2017-02-07T09:30:00Z,27.3400,-84.2750,0.0,22.05,2 
Scripps,ioos:station:wmo:42099:1,2017-02-07T10:30:00Z,27.3400,-84.2750,0.0,22.0,2 
Scripps,ioos:station:wmo:42099:1,2017-02-07T12:30:00Z,27.3400,-84.2750,0.0,22.0,2 
Scripps,ioos:station:wmo:42099:1,2017-02-07T13:30:00Z,27.3400,-84.2750,0.0,22.25,2 
Scripps,ioos:station:wmo:42099:1,2017-02-07T16:30:00Z,27.3400,-84.2750,0.0,22.65,2 
Scripps,ioos:station:wmo:42099:1,2017-02-07T18:30:00Z,27.3400,-84.2750,0.0,22.8,2 
Scripps,ioos:station:wmo:42099:1,2017-02-07T19:30:00Z,27.3400,-84.2750,0.0,22.85,2 
Scripps,ioos:station:wmo:42099:1,2017-02-07T20:30:00Z,27.3400,-84.2750,0.0,22.9,2 
Scripps,ioos:station:wmo:42099:1,2017-02-07T22:30:00Z,27.3400,-84.2750,0.0,22.9,2 
Scripps,ioos:station:wmo:42099:1,2017-02-07T23:30:00Z,27.3400,-84.2750,0.0,22.85,2 
Scripps,ioos:station:wmo:42099:1,2017-02-08T00:30:00Z,27.3400,-84.2750,0.0,22.9,2 
Scripps,ioos:station:wmo:42099:1,2017-02-08T01:00:00Z,27.3400,-84.2750,0.0,22.9,2 
Scripps,ioos:station:wmo:42099:1,2017-02-08T02:00:00Z,27.3400,-84.2750,0.0,22.9,2 
Scripps,ioos:station:wmo:42099:1,2017-02-08T04:30:00Z,27.3400,-84.2750,0.0,22.85,2 
Scripps,ioos:station:wmo:42099:1,2017-02-08T07:00:00Z,27.3400,-84.2750,0.0,22.85,2 
Scripps,ioos:station:wmo:42099:1,2017-02-08T09:30:00Z,27.3400,-84.2750,0.0,22.85,2 
Scripps,ioos:station:wmo:42099:1,2017-02-08T12:30:00Z,27.3400,-84.2750,0.0,22.75,2 
Scripps,ioos:station:wmo:42099:1,2017-02-08T13:30:00Z,27.3400,-84.2750,0.0,22.75,2 
Scripps,ioos:station:wmo:42099:1,2017-02-08T14:30:00Z,27.3400,-84.2750,0.0,22.75,2 
Scripps,ioos:station:wmo:42099:1,2017-02-08T15:30:00Z,27.3400,-84.2750,0.0,22.9,2 
Scripps,ioos:station:wmo:42099:1,2017-02-08T17:30:00Z,27.3400,-84.2750,0.0,23.15,2 
Scripps,ioos:station:wmo:42099:1,2017-02-08T18:30:00Z,27.3400,-84.2750,0.0,23.25,2 
Scripps,ioos:station:wmo:42099:1,2017-02-08T22:30:00Z,27.3400,-84.2750,0.0,23.15,2 
Scripps,ioos:station:wmo:42099:1,2017-02-08T23:30:00Z,27.3400,-84.2750,0.0,23.15,2 
Scripps,ioos:station:wmo:42099:1,2017-02-09T00:30:00Z,27.3400,-84.2750,0.0,23.15,2 
Scripps,ioos:station:wmo:42099:1,2017-02-09T03:30:00Z,27.3400,-84.2750,0.0,23.1,2 
Scripps,ioos:station:wmo:42099:1,2017-02-09T04:30:00Z,27.3400,-84.2750,0.0,23.1,2 
Scripps,ioos:station:wmo:42099:1,2017-02-09T05:30:00Z,27.3400,-84.2750,0.0,23.05,2 
Scripps,ioos:station:wmo:42099:1,2017-02-09T12:30:00Z,27.3400,-84.2750,0.0,22.95,2 
Scripps,ioos:station:wmo:42099:1,2017-02-09T13:30:00Z,27.3400,-84.2750,0.0,22.9,2 
Scripps,ioos:station:wmo:42099:1,2017-02-09T14:30:00Z,27.3400,-84.2750,0.0,22.9,2 
Scripps,ioos:station:wmo:42099:1,2017-02-09T15:30:00Z,27.3400,-84.2750,0.0,22.9,2 
Scripps,ioos:station:wmo:42099:1,2017-02-09T22:30:00Z,27.3400,-84.2750,0.0,22.85,2 
Scripps,ioos:station:wmo:42099:1,2017-02-10T01:30:00Z,27.3400,-84.2750,0.0,22.8,2 
Scripps,ioos:station:wmo:42099:1,2017-02-10T03:00:00Z,27.3400,-84.2750,0.0,22.8,2 
Scripps,ioos:station:wmo:42099:1,2017-02-10T04:00:00Z,27.3400,-84.2750,0.0,22.8,2 
Scripps,ioos:station:wmo:42099:1,2017-02-10T05:30:00Z,27.3400,-84.2750,0.0,22.75,2 
Scripps,ioos:station:wmo:42099:1,2017-02-10T06:30:00Z,27.3400,-84.2750,0.0,22.75,2 
Scripps,ioos:station:wmo:42099:1,2017-02-10T07:30:00Z,27.3400,-84.2750,0.0,22.75,2 
Scripps,ioos:station:wmo:42099:1,2017-02-10T08:30:00Z,27.3400,-84.2750,0.0,22.75,2 
Scripps,ioos:station:wmo:42099:1,2017-02-10T09:30:00Z,27.3400,-84.2750,0.0,22.75,2 
Scripps,ioos:station:wmo:42099:1,2017-02-10T10:30:00Z,27.3400,-84.2750,0.0,22.7,2 
Scripps,ioos:station:wmo:42099:1,2017-02-10T11:30:00Z,27.3400,-84.2750,0.0,22.75,2 
Scripps,ioos:station:wmo:42099:1,2017-02-10T12:30:00Z,27.3400,-84.2750,0.0,22.7,2 
Scripps,ioos:station:wmo:42099:1,2017-02-10T13:30:00Z,27.3400,-84.2750,0.0,22.7,2 
Scripps,ioos:station:wmo:42099:1,2017-02-10T14:30:00Z,27.3400,-84.2750,0.0,22.7,2 
Scripps,ioos:station:wmo:42099:1,2017-02-10T15:30:00Z,27.3400,-84.2750,0.0,22.7,2 
Scripps,ioos:station:wmo:42099:1,2017-02-10T16:30:00Z,27.3400,-84.2750,0.0,22.7,2 
Scripps,ioos:station:wmo:42099:1,2017-02-10T17:30:00Z,27.3400,-84.2750,0.0,22.7,2 
Scripps,ioos:station:wmo:42099:1,2017-02-10T18:30:00Z,27.3400,-84.2750,0.0,22.7,2 
Scripps,ioos:station:wmo:42099:1,2017-02-10T19:30:00Z,27.3400,-84.2750,0.0,22.7,2 
Scripps,ioos:station:wmo:42099:1,2017-02-10T20:30:00Z,27.3400,-84.2750,0.0,22.7,2 
Scripps,ioos:station:wmo:42099:1,2017-02-10T21:30:00Z,27.3400,-84.2750,0.0,22.7,2 
Scripps,ioos:station:wmo:42099:1,2017-02-11T00:30:00Z,27.3400,-84.2750,0.0,22.7,2 
Scripps,ioos:station:wmo:42099:1,2017-02-11T02:30:00Z,27.3400,-84.2750,0.0,22.7,2 
Scripps,ioos:station:wmo:42099:1,2017-02-11T03:30:00Z,27.3400,-84.2750,0.0,22.7,2 
Scripps,ioos:station:wmo:42099:1,2017-02-11T04:30:00Z,27.3400,-84.2750,0.0,22.7,2 
Scripps,ioos:station:wmo:42099:1,2017-02-11T05:30:00Z,27.3400,-84.2750,0.0,22.7,2 
Scripps,ioos:station:wmo:42099:1,2017-02-11T06:30:00Z,27.3400,-84.2750,0.0,22.7,2 
Scripps,ioos:station:wmo:42099:1,2017-02-11T07:30:00Z,27.3400,-84.2750,0.0,22.65,2 
Scripps,ioos:station:wmo:42099:1,2017-02-11T08:30:00Z,27.3400,-84.2750,0.0,22.65,2 
Scripps,ioos:station:wmo:42099:1,2017-02-11T09:30:00Z,27.3400,-84.2750,0.0,22.65,2 
Scripps,ioos:station:wmo:42099:1,2017-02-11T10:30:00Z,27.3400,-84.2750,0.0,22.65,2 
Scripps,ioos:station:wmo:42099:1,2017-02-11T11:30:00Z,27.3400,-84.2750,0.0,22.65,2 
Scripps,ioos:station:wmo:42099:1,2017-02-11T12:30:00Z,27.3400,-84.2750,0.0,22.65,2 
Scripps,ioos:station:wmo:42099:1,2017-02-11T13:30:00Z,27.3400,-84.2750,0.0,22.7,2 
Scripps,ioos:station:wmo:42099:1,2017-02-11T14:30:00Z,27.3400,-84.2750,0.0,22.7,2 
Scripps,ioos:station:wmo:42099:1,2017-02-11T15:30:00Z,27.3400,-84.2750,0.0,22.7,2 
Scripps,ioos:station:wmo:42099:1,2017-02-11T16:30:00Z,27.3400,-84.2750,0.0,22.8,2 
Scripps,ioos:station:wmo:42099:1,2017-02-11T17:30:00Z,27.3400,-84.2750,0.0,22.85,2 
Scripps,ioos:station:wmo:42099:1,2017-02-11T18:30:00Z,27.3400,-84.2750,0.0,22.9,2 
Scripps,ioos:station:wmo:42099:1,2017-02-11T19:30:00Z,27.3400,-84.2750,0.0,22.95,2 
Scripps,ioos:station:wmo:42099:1,2017-02-11T20:30:00Z,27.3400,-84.2750,0.0,23.0,2 
Scripps,ioos:station:wmo:42099:1,2017-02-11T21:30:00Z,27.3400,-84.2750,0.0,23.0,2 
Scripps,ioos:station:wmo:42099:1,2017-02-11T22:30:00Z,27.3400,-84.2750,0.0,22.95,2 
Scripps,ioos:station:wmo:42099:1,2017-02-12T01:30:00Z,27.3400,-84.2750,0.0,22.9,2 
Scripps,ioos:station:wmo:42099:1,2017-02-12T02:30:00Z,27.3400,-84.2750,0.0,22.9,2 
Scripps,ioos:station:wmo:42099:1,2017-02-12T07:00:00Z,27.3400,-84.2750,0.0,22.85,2 
Scripps,ioos:station:wmo:42099:1,2017-02-12T08:00:00Z,27.3400,-84.2750,0.0,22.85,2 
Scripps,ioos:station:wmo:42099:1,2017-02-12T10:00:00Z,27.3400,-84.2750,0.0,22.8,2 
Scripps,ioos:station:wmo:42099:1,2017-02-12T12:00:00Z,27.3400,-84.2750,0.0,22.8,2 
Scripps,ioos:station:wmo:42099:1,2017-02-12T13:00:00Z,27.3400,-84.2750,0.0,22.8,2 
Scripps,ioos:station:wmo:42099:1,2017-02-12T14:00:00Z,27.3400,-84.2750,0.0,22.8,2 
Scripps,ioos:station:wmo:42099:1,2017-02-12T16:30:00Z,27.3400,-84.2750,0.0,23.0,2 
Scripps,ioos:station:wmo:42099:1,2017-02-12T18:30:00Z,27.3400,-84.2750,0.0,23.3,2 
Scripps,ioos:station:wmo:42099:1,2017-02-12T21:30:00Z,27.3400,-84.2750,0.0,23.5,2 
Scripps,ioos:station:wmo:42099:1,2017-02-12T22:00:00Z,27.3400,-84.2750,0.0,23.4,2 
Scripps,ioos:station:wmo:42099:1,2017-02-12T23:30:00Z,27.3400,-84.2750,0.0,23.3,2 
Scripps,ioos:station:wmo:42099:1,2017-02-13T00:00:00Z,27.3400,-84.2750,0.0,23.3,2 
Scripps,ioos:station:wmo:42099:1,2017-02-13T01:00:00Z,27.3400,-84.2750,0.0,23.2,2 
Scripps,ioos:station:wmo:42099:1,2017-02-13T02:30:00Z,27.3400,-84.2750,0.0,23.1,2 
Scripps,ioos:station:wmo:42099:1,2017-02-13T05:30:00Z,27.3400,-84.2750,0.0,23.05,2 
Scripps,ioos:station:wmo:42099:1,2017-02-13T07:30:00Z,27.3400,-84.2750,0.0,22.95,2 
Scripps,ioos:station:wmo:42099:1,2017-02-13T08:30:00Z,27.3400,-84.2750,0.0,22.95,2 
Scripps,ioos:station:wmo:42099:1,2017-02-13T09:30:00Z,27.3400,-84.2750,0.0,22.95,2 
Scripps,ioos:station:wmo:42099:1,2017-02-13T12:00:00Z,27.3400,-84.2750,0.0,22.9,2 
Scripps,ioos:station:wmo:42099:1,2017-02-13T13:00:00Z,27.3400,-84.2750,0.0,22.9,2 
Scripps,ioos:station:wmo:42099:1,2017-02-13T14:30:00Z,27.3400,-84.2750,0.0,22.9,2 
Scripps,ioos:station:wmo:42099:1,2017-02-13T15:30:00Z,27.3400,-84.2750,0.0,22.9,2 
Scripps,ioos:station:wmo:42099:1,2017-02-13T18:30:00Z,27.3400,-84.2750,0.0,23.05,2 
Scripps,ioos:station:wmo:42099:1,2017-02-13T19:00:00Z,27.3400,-84.2750,0.0,23.1,2 
Scripps,ioos:station:wmo:42099:1,2017-02-13T20:00:00Z,27.3400,-84.2750,0.0,23.15,2 
Scripps,ioos:station:wmo:42099:1,2017-02-13T21:30:00Z,27.3400,-84.2750,0.0,23.15,2 
Scripps,ioos:station:wmo:42099:1,2017-02-13T22:00:00Z,27.3400,-84.2750,0.0,23.15,2 
Scripps,ioos:station:wmo:42099:1,2017-02-14T00:30:00Z,27.3400,-84.2750,0.0,23.0,2 
Scripps,ioos:station:wmo:42099:1,2017-02-14T01:00:00Z,27.3400,-84.2750,0.0,22.95,2 
Scripps,ioos:station:wmo:42099:1,2017-02-14T02:30:00Z,27.3400,-84.2750,0.0,22.95,2 
Scripps,ioos:station:wmo:42099:1,2017-02-14T03:30:00Z,27.3400,-84.2750,0.0,22.95,2 
Scripps,ioos:station:wmo:42099:1,2017-02-14T04:30:00Z,27.3400,-84.2750,0.0,22.95,2 
Scripps,ioos:station:wmo:42099:1,2017-02-14T05:30:00Z,27.3400,-84.2750,0.0,22.9,2 
Scripps,ioos:station:wmo:42099:1,2017-02-14T06:30:00Z,27.3400,-84.2750,0.0,22.9,2 
Scripps,ioos:station:wmo:42099:1,2017-02-14T07:30:00Z,27.3400,-84.2750,0.0,22.9,2 
Scripps,ioos:station:wmo:42099:1,2017-02-14T08:30:00Z,27.3400,-84.2750,0.0,22.85,2 
Scripps,ioos:station:wmo:42099:1,2017-02-14T09:30:00Z,27.3400,-84.2750,0.0,22.85,2 
Scripps,ioos:station:wmo:42099:1,2017-02-14T10:30:00Z,27.3400,-84.2750,0.0,22.85,2 
Scripps,ioos:station:wmo:42099:1,2017-02-14T12:30:00Z,27.3400,-84.2750,0.0,22.85,2 
Scripps,ioos:station:wmo:42099:1,2017-02-14T16:30:00Z,27.3400,-84.2750,0.0,23.5,2 
Scripps,ioos:station:wmo:42099:1,2017-02-14T17:30:00Z,27.3400,-84.2750,0.0,23.35,2 
Scripps,ioos:station:wmo:42099:1,2017-02-14T18:00:00Z,27.3400,-84.2750,0.0,23.3,2 
Scripps,ioos:station:wmo:42099:1,2017-02-14T19:30:00Z,27.3400,-84.2750,0.0,23.45,2 
Scripps,ioos:station:wmo:42099:1,2017-02-14T20:30:00Z,27.3400,-84.2750,0.0,23.55,2 
Scripps,ioos:station:wmo:42099:1,2017-02-14T21:30:00Z,27.3400,-84.2750,0.0,23.4,2 
Scripps,ioos:station:wmo:42099:1,2017-02-14T22:30:00Z,27.3400,-84.2750,0.0,23.3,2 
Scripps,ioos:station:wmo:42099:1,2017-02-14T23:30:00Z,27.3400,-84.2750,0.0,23.2,2 
Scripps,ioos:station:wmo:42099:1,2017-02-15T01:30:00Z,27.3400,-84.2750,0.0,23.1,2 
Scripps,ioos:station:wmo:42099:1,2017-02-15T02:30:00Z,27.3400,-84.2750,0.0,23.0,2 
Scripps,ioos:station:wmo:42099:1,2017-02-15T03:30:00Z,27.3400,-84.2750,0.0,22.9,2 
Scripps,ioos:station:wmo:42099:1,2017-02-15T04:30:00Z,27.3400,-84.2750,0.0,22.95,2 
Scripps,ioos:station:wmo:42099:1,2017-02-15T09:30:00Z,27.3400,-84.2750,0.0,22.9,2 
Scripps,ioos:station:wmo:42099:1,2017-02-15T10:00:00Z,27.3400,-84.2750,0.0,22.9,2 
Scripps,ioos:station:wmo:42099:1,2017-02-15T13:30:00Z,27.3400,-84.2750,0.0,22.7,2 
Scripps,ioos:station:wmo:42099:1,2017-02-15T15:30:00Z,27.3400,-84.2750,0.0,22.7,2 
Scripps,ioos:station:wmo:42099:1,2017-02-15T16:30:00Z,27.3400,-84.2750,0.0,22.75,2 
Scripps,ioos:station:wmo:42099:1,2017-02-15T17:00:00Z,27.3400,-84.2750,0.0,22.85,2 
Scripps,ioos:station:wmo:42099:1,2017-02-16T07:00:00Z,27.3400,-84.2750,0.0,22.15,2 
Scripps,ioos:station:wmo:42099:1,2017-02-16T09:30:00Z,27.3400,-84.2750,0.0,22.05,2 
Scripps,ioos:station:wmo:42099:1,2017-02-16T10:30:00Z,27.3400,-84.2750,0.0,22.0,2 
Scripps,ioos:station:wmo:42099:1,2017-02-16T12:30:00Z,27.3400,-84.2750,0.0,21.9,2 
Scripps,ioos:station:wmo:42099:1,2017-02-16T13:30:00Z,27.3400,-84.2750,0.0,21.9,2 
Scripps,ioos:station:wmo:42099:1,2017-02-16T16:30:00Z,27.3400,-84.2750,0.0,21.85,2 
Scripps,ioos:station:wmo:42099:1,2017-02-16T17:30:00Z,27.3400,-84.2750,0.0,21.85,2 
Scripps,ioos:station:wmo:42099:1,2017-02-16T18:30:00Z,27.3400,-84.2750,0.0,21.8,2 
Scripps,ioos:station:wmo:42099:1,2017-02-16T20:30:00Z,27.3400,-84.2750,0.0,21.8,2 
Scripps,ioos:station:wmo:42099:1,2017-02-16T21:30:00Z,27.3400,-84.2750,0.0,21.75,2 
Scripps,ioos:station:wmo:42099:1,2017-02-17T01:30:00Z,27.3400,-84.2750,0.0,21.7,2 
Scripps,ioos:station:wmo:42099:1,2017-02-17T02:30:00Z,27.3400,-84.2750,0.0,21.7,2 
Scripps,ioos:station:wmo:42099:1,2017-02-17T03:00:00Z,27.3400,-84.2750,0.0,21.7,2 
Scripps,ioos:station:wmo:42099:1,2017-02-17T04:00:00Z,27.3400,-84.2750,0.0,21.7,2 
Scripps,ioos:station:wmo:42099:1,2017-02-17T08:30:00Z,27.3400,-84.2750,0.0,21.55,2 
Scripps,ioos:station:wmo:42099:1,2017-02-17T09:30:00Z,27.3400,-84.2750,0.0,21.6,2 
Scripps,ioos:station:wmo:42099:1,2017-02-17T10:30:00Z,27.3400,-84.2750,0.0,21.55,2 
Scripps,ioos:station:wmo:42099:1,2017-02-17T11:00:00Z,27.3400,-84.2750,0.0,21.55,2 
Scripps,ioos:station:wmo:42099:1,2017-02-17T12:30:00Z,27.3400,-84.2750,0.0,21.55,2 
Scripps,ioos:station:wmo:42099:1,2017-02-17T13:30:00Z,27.3400,-84.2750,0.0,21.55,2 
Scripps,ioos:station:wmo:42099:1,2017-02-17T14:30:00Z,27.3400,-84.2750,0.0,21.55,2 
Scripps,ioos:station:wmo:42099:1,2017-02-17T17:30:00Z,27.3400,-84.2750,0.0,21.7,2 
Scripps,ioos:station:wmo:42099:1,2017-02-17T18:30:00Z,27.3400,-84.2750,0.0,21.8,2 
Scripps,ioos:station:wmo:42099:1,2017-02-17T19:30:00Z,27.3400,-84.2750,0.0,21.8,2 
Scripps,ioos:station:wmo:42099:1,2017-02-17T20:30:00Z,27.3400,-84.2750,0.0,21.85,2 
Scripps,ioos:station:wmo:42099:1,2017-02-17T21:30:00Z,27.3400,-84.2750,0.0,21.8,2 
Scripps,ioos:station:wmo:42099:1,2017-02-17T22:30:00Z,27.3400,-84.2750,0.0,21.75,2 
Scripps,ioos:station:wmo:42099:1,2017-02-18T00:30:00Z,27.3400,-84.2750,0.0,21.6,2 
Scripps,ioos:station:wmo:42099:1,2017-02-18T05:00:00Z,27.3400,-84.2750,0.0,21.4,2 
Scripps,ioos:station:wmo:42099:1,2017-02-18T07:30:00Z,27.3400,-84.2750,0.0,21.4,2 
Scripps,ioos:station:wmo:42099:1,2017-02-18T08:30:00Z,27.3400,-84.2750,0.0,21.4,2 
Scripps,ioos:station:wmo:42099:1,2017-02-18T09:30:00Z,27.3400,-84.2750,0.0,21.4,2 
Scripps,ioos:station:wmo:42099:1,2017-02-18T10:00:00Z,27.3400,-84.2750,0.0,21.4,2 
Scripps,ioos:station:wmo:42099:1,2017-02-18T12:30:00Z,27.3400,-84.2750,0.0,21.35,2 
Scripps,ioos:station:wmo:42099:1,2017-02-18T15:30:00Z,27.3400,-84.2750,0.0,21.35,2 
Scripps,ioos:station:wmo:42099:1,2017-02-18T16:00:00Z,27.3400,-84.2750,0.0,21.35,2 
Scripps,ioos:station:wmo:42099:1,2017-02-18T19:00:00Z,27.3400,-84.2750,0.0,21.1,2 
Scripps,ioos:station:wmo:42099:1,2017-02-18T21:30:00Z,27.3400,-84.2750,0.0,21.1,2 
Scripps,ioos:station:wmo:42099:1,2017-02-18T22:30:00Z,27.3400,-84.2750,0.0,21.05,2 
Scripps,ioos:station:wmo:42099:1,2017-02-18T23:00:00Z,27.3400,-84.2750,0.0,21.05,2 
Scripps,ioos:station:wmo:42099:1,2017-02-19T00:30:00Z,27.3400,-84.2750,0.0,21.0,2 
Scripps,ioos:station:wmo:42099:1,2017-02-19T01:30:00Z,27.3400,-84.2750,0.0,21.05,2 
Scripps,ioos:station:wmo:42099:1,2017-02-19T02:30:00Z,27.3400,-84.2750,0.0,21.05,2 
Scripps,ioos:station:wmo:42099:1,2017-02-19T03:30:00Z,27.3400,-84.2750,0.0,21.05,2 
Scripps,ioos:station:wmo:42099:1,2017-02-19T04:30:00Z,27.3400,-84.2750,0.0,21.05,2 
Scripps,ioos:station:wmo:42099:1,2017-02-19T05:30:00Z,27.3400,-84.2750,0.0,21.15,2 
Scripps,ioos:station:wmo:42099:1,2017-02-19T06:30:00Z,27.3400,-84.2750,0.0,21.15,2 
Scripps,ioos:station:wmo:42099:1,2017-02-19T07:30:00Z,27.3400,-84.2750,0.0,21.2,2 
Scripps,ioos:station:wmo:42099:1,2017-02-19T08:30:00Z,27.3400,-84.2750,0.0,21.35,2 
Scripps,ioos:station:wmo:42099:1,2017-02-19T09:30:00Z,27.3400,-84.2750,0.0,21.35,2 
Scripps,ioos:station:wmo:42099:1,2017-02-19T12:00:00Z,27.3400,-84.2750,0.0,21.8,2 